Location: Unspecified
(37.6100°N, 2.7800°W)
Time: 14:02:41
(UTC+00:00)

N. Korean satellite - Visible Passes

Search period start: 16 October 2019 00:00
Search period end: 26 October 2019 00:00
Orbit: 455 x 508 km, 97.2° (Epoch: 15 October)

Date Brightness Start Highest point End Pass type
(mag) Time Alt. Az. Time Alt. Az. Time Alt. Az.
16 Oct 10.4 05:01:21 10° ENE 05:02:26 11° E 05:03:30 10° ESE visible
17 Oct 10.0 18:15:23 10° SW 18:17:33 16° W 18:19:44 10° NW visible
18 Oct 8.2 05:42:01 10° NNE 05:45:26 40° E 05:48:53 10° S visible
19 Oct 9.8 05:17:25 10° NE 05:20:03 19° E 05:22:42 10° SE visible
21 Oct 9.7 18:07:06 10° SW 18:09:40 20° W 18:12:17 10° NW visible
22 Oct 8.8 05:34:19 10° NNE 05:37:37 32° E 05:40:56 10° SSE visible
23 Oct 10.1 05:09:58 10° NE 05:12:12 15° E 05:14:27 10° SE visible
24 Oct 10.3 18:25:56 10° WSW 18:27:14 12° W 18:28:34 10° WNW visible
25 Oct 7.5 05:51:30 10° NNE 05:55:07 56° E 05:58:45 10° S visible
25 Oct 9.2 17:58:53 10° SSW 18:01:46 25° W 18:04:41 10° NW visible
